Caldwell, NJ

5:38 AM EDT on October 24, 2017 (GMT -0400)
Essex County

Weather History for KCDW - November, 2013

Change the Weather History Date:

Monday, November 18, 2013

  Actual Average Record
Temperature  
Mean Temperature 57 °F -  
Max Temperature 64 °F 51 °F 70 °F (1953)
Min Temperature 48 °F 31 °F 16 °F (1959)
Degree Days  
Heating Degree Days 8    
Growing Degree Days 7 (Base 50)    
Moisture  
Dew Point 43 °F    
Average Humidity 62    
Maximum Humidity 97    
Minimum Humidity 27    
Precipitation  
Precipitation 0.22 in - - ()
Sea Level Pressure  
Sea Level Pressure 29.69 in    
Wind  
Wind Speed 9 mph (West)    
Max Wind Speed 20 mph    
Max Gust Speed 26 mph    
Visibility 9 miles    
Events Rain    
Averages and records for this station are not official NWS values.
T = Trace of Precipitation, MM = Missing Value Source: NWS Daily Summary

Daily Weather History Graph

Daily Weather History Graph

Search for Another Location

Airport or City:

Trip Planner

Search our weather history database for the weather conditions in past years. The results will help you decide how hot, cold, wet, or windy it might be!

Date:

Astronomy

Nov. 18, 2013 Rise Set
Actual Time 6:48 AM EST 4:36 PM EST
Civil Twilight 6:18 AM EST 5:05 PM EST
Nautical Twilight 5:45 AM EST 5:39 PM EST
Astronomical Twilight 5:12 AM EST 6:11 PM EST
Moon 5:36 PM EST (11/18) 7:34 AM EST (11/18)
Length of Visible Light 10h 47m
Length of Day
9h 48m
Full, 99% of the Moon is Illuminated
Nov 18
Full
Nov 25
Last Quarter
Dec 2
New
Dec 9
First Quarter
Dec 17
Full

Hourly Weather History & Observations

Time (EST) Temp. Dew Point Humidity Pressure Visibility Wind Dir Wind Speed Gust Speed Precip Events Conditions
12:50 AM 60.8 °F 57.2 °F 88% 29.74 in 10.0 mi South 6.9 mph - N/A   Overcast
12:53 AM 61.0 °F 57.9 °F 90% 29.75 in 10.0 mi South 8.1 mph - N/A   Overcast
1:20 AM 60.8 °F 57.2 °F 88% 29.72 in 10.0 mi South 8.1 mph 18.4 mph N/A   Overcast
1:53 AM 61.0 °F 59.0 °F 93% 29.70 in 10.0 mi South 8.1 mph - 0.00 in Rain Light Rain
2:11 AM 60.8 °F 59.0 °F 94% 29.67 in 10.0 mi South 8.1 mph 18.4 mph 0.00 in   Overcast
2:53 AM 61.0 °F 60.1 °F 97% 29.64 in 4.0 mi SSW 9.2 mph 17.3 mph 0.06 in Rain Rain
3:53 AM 63.0 °F 61.0 °F 93% 29.62 in 7.0 mi SW 10.4 mph 17.3 mph 0.09 in Rain Light Rain
4:11 AM 62.6 °F 60.8 °F 94% 29.64 in 3.0 mi NW 16.1 mph 24.2 mph 0.05 in Rain Light Rain
4:13 AM 60.8 °F 57.2 °F 88% 29.65 in 2.5 mi WNW 19.6 mph 25.3 mph 0.05 in Rain Rain
4:19 AM 57.2 °F 53.6 °F 88% 29.66 in 3.0 mi WNW 15.0 mph 26.5 mph 0.06 in Rain Light Rain
4:29 AM 55.4 °F 51.8 °F 88% 29.66 in 8.0 mi WNW 17.3 mph 23.0 mph 0.06 in Rain Light Rain
4:53 AM 55.9 °F 51.1 °F 84% 29.67 in 10.0 mi Calm Calm - 0.06 in   Overcast
5:53 AM 55.0 °F 50.0 °F 83% 29.66 in 10.0 mi Variable 3.5 mph - 0.01 in   Overcast
6:53 AM 55.0 °F 50.0 °F 83% 29.68 in 10.0 mi WSW 4.6 mph - 0.00 in   Overcast
7:53 AM 55.0 °F 50.0 °F 83% 29.69 in 10.0 mi Variable 4.6 mph - N/A   Clear
8:53 AM 57.0 °F 48.0 °F 72% 29.70 in 10.0 mi WSW 6.9 mph - N/A   Clear
9:53 AM 60.1 °F 37.0 °F 42% 29.69 in 10.0 mi WNW 12.7 mph 20.7 mph N/A   Clear
10:53 AM 61.0 °F 34.0 °F 36% 29.68 in 10.0 mi WNW 18.4 mph 24.2 mph N/A   Clear
11:53 AM 62.1 °F 33.1 °F 34% 29.66 in 10.0 mi West 11.5 mph 18.4 mph N/A   Clear
12:53 PM 63.0 °F 33.1 °F 33% 29.65 in 10.0 mi West 10.4 mph 17.3 mph N/A   Clear
1:53 PM 64.0 °F 32.0 °F 30% 29.64 in 10.0 mi West 10.4 mph 19.6 mph N/A   Clear
2:53 PM 64.0 °F 28.9 °F 27% 29.64 in 10.0 mi West 10.4 mph 19.6 mph N/A   Clear
3:53 PM 63.0 °F 28.9 °F 28% 29.65 in 10.0 mi West 9.2 mph - N/A   Clear
4:53 PM 61.0 °F 28.9 °F 30% 29.69 in 10.0 mi West 6.9 mph - N/A   Partly Cloudy
5:53 PM 59.0 °F 28.0 °F 31% 29.72 in 10.0 mi West 5.8 mph - N/A   Clear
6:53 PM 54.0 °F 27.0 °F 35% 29.74 in 10.0 mi Calm Calm - N/A   Partly Cloudy
7:53 PM 55.9 °F 25.0 °F 30% 29.75 in 10.0 mi West 8.1 mph - N/A   Clear
8:53 PM 54.0 °F 24.1 °F 31% 29.77 in 10.0 mi WNW 9.2 mph 19.6 mph N/A   Clear
9:53 PM 53.1 °F 24.1 °F 32% 29.79 in 10.0 mi West 11.5 mph 17.3 mph N/A   Clear
10:53 PM 50.0 °F 26.1 °F 39% 29.80 in 10.0 mi NW 6.9 mph - N/A   Clear
11:53 PM 48.9 °F 27.0 °F 43% 29.82 in 10.0 mi NW 11.5 mph 23.0 mph N/A   Clear